User: anonymous   Login
Location: La Vergne
(36.0160°N, 86.5820°W)
Time: 03:23:37
(UTC-05:00)
Language:

Cosmos 1703 Rocket - Orbit

View from above orbital plane
View from above orbital plane
View from above satellite
View from above satellite

Ground track
Ground track

The orbit data is extracted from the following two-line orbital elements,

1 16263U 85108B   16207.20716065  .00000096  00000-0  89359-5 0  9997
2 16263  82.5024  61.0571 0019804 349.5764 149.4279 14.82930137655922
Epoch (UTC): 25 July 2016 04:58:18
Eccentricity: 0.0019804
inclination: 82.5024°
perigee height: 606 km
apogee height: 634 km
right ascension of ascending node: 61.0571°
argument of perigee: 349.5764°
revolutions per day: 14.82930137
mean anomaly at epoch: 149.4279°
orbit number at epoch: 65592

The dashed part of the orbit path shows where the satellite is in the earth's shadow,  

DLR